Theta_e
324 325 324 322 321 318 316 309 297 291 292 293 292 292 290 289 288 288 287 287 289 289 288 288 288 288 288 288 288 288 287 287 287 287 287 287 287 288
325 323 324 322 321 316 311 304 298 295 291 292 292 291 290 289 288 288 287 286 286 286 286 287 287 287 287 287 287 286 286 285 285 285 286 286 286 286
324 324 324 322 318 312 306 300 296 294 292 290 291 291 289 288 288 288 287 287 286 285 285 286 286 286 286 286 285 285 284 284 284 284 284 284 285 285
324 323 322 319 313 310 304 297 295 294 293 290 290 289 289 288 288 288 287 287 286 286 285 285 285 285 286 285 285 284 283 283 282 282 283 283 283 283
322 322 321 316 311 306 302 294 293 293 293 292 289 289 288 288 288 288 287 286 286 286 285 285 285 284 285 285 284 284 283 282 282 281 281 281 282 282
320 319 317 315 313 307 298 292 291 291 291 291 290 289 289 288 288 288 287 286 285 285 285 285 285 284 284 283 283 282 283 283 281 280 280 280 280 281
316 313 312 310 309 303 298 293 291 290 290 289 289 288 288 288 287 288 287 286 284 284 284 284 284 284 283 283 283 282 282 283 281 280 279 279 279 279
310 306 305 300 297 298 297 291 290 290 289 288 288 288 288 288 288 287 286 284 283 284 284 284 284 283 283 283 283 283 282 282 282 280 279 278 278 278
305 303 301 298 296 295 292 292 290 290 290 290 289 288 288 288 288 287 286 285 284 284 283 283 283 283 283 283 283 283 282 281 281 280 279 279 278 277
301 300 298 297 293 291 291 289 289 290 290 288 288 288 288 288 288 287 286 286 284 283 282 281 282 282 283 283 282 283 283 281 280 280 280 279 278 277
296 295 294 293 292 291 289 289 290 290 288 288 288 288 287 287 286 285 285 284 283 282 282 281 282 283 283 283 282 282 283 281 280 279 278 278 278 277
291 290 291 291 290 289 291 292 289 288 287 287 286 286 286 286 285 285 284 284 283 282 282 282 282 283 282 282 282 282 282 281 280 279 278 277 277 276
291 290 290 291 291 291 291 289 288 287 287 286 286 286 286 286 286 285 285 285 284 283 283 282 282 282 282 282 282 282 281 281 280 280 278 277 276 275
291 291 291 292 291 288 287 287 286 286 286 286 286 287 287 287 286 284 284 284 285 284 284 283 282 282 281 281 281 281 281 281 280 280 279 278 276 275
290 291 290 288 287 286 286 286 285 285 285 285 287 288 288 288 286 284 284 284 284 284 284 284 282 282 281 280 280 280 280 280 280 279 279 278 277 276
288 287 287 287 286 286 286 286 285 285 285 286 287 287 286 285 284 284 283 283 283 283 284 283 282 282 281 280 279 279 279 279 279 279 278 278 277 276
286 285 284 285 285 285 285 285 285 285 285 286 285 285 284 283 283 282 282 282 282 282 281 282 281 281 280 280 278 277 277 277 278 278 277 277 277 277
285 285 284 284 283 283 283 284 284 284 285 284 283 282 281 281 281 280 280 280 280 280 280 280 280 279 278 278 278 277 277 277 278 277 276 276 277 277
284 284 283 283 283 282 282 282 283 283 284 283 282 281 280 279 278 278 278 279 278 278 278 278 278 278 276 276 278 278 277 277 277 277 276 275 275 276
284 283 281 282 282 282 282 282 283 283 282 281 280 279 278 277 276 276 276 276 276 276 276 276 276 277 276 277 277 277 277 277 277 277 276 275 275 274
283 283 282 281 281 282 282 282 282 281 280 279 277 277 276 275 274 274 273 274 274 273 273 273 274 275 275 275 274 275 276 277 277 277 276 275 273 272
282 281 281 281 281 281 281 280 279 278 277 276 275 275 274 273 272 272 272 271 271 272 272 272 272 272 272 272 273 274 275 276 276 275 275 274 274 271
280 280 279 279 279 278 278 277 276 276 275 274 274 273 272 272 271 271 270 270 270 270 270 270 270 270 271 271 272 273 273 274 274 273 274 273 273 273
Wind_Speed
44 42 40 37 35 36 34 33 24 5 8 18 12 24 18 14 10 8 7 10 9 6 3 3 3 5 7 10 11 12 13 13 15 16 18 19 21 23
47 42 42 39 39 38 34 33 32 22 4 14 22 21 21 16 13 9 8 9 9 7 6 3 1 2 5 7 9 11 11 12 13 14 16 18 19 22
45 43 42 41 39 35 32 32 32 26 9 7 19 21 23 19 16 12 10 10 8 7 7 6 5 3 4 5 7 9 10 11 11 12 14 16 18 20
47 44 44 41 36 35 33 36 33 28 17 18 19 23 20 20 15 13 11 10 9 10 9 10 10 7 6 6 5 7 9 10 10 11 12 14 16 18
47 46 48 44 41 41 38 39 32 30 25 18 16 23 18 21 18 15 11 10 11 14 13 14 14 11 9 9 7 8 8 10 10 10 10 11 13 15
45 46 48 47 46 46 42 37 30 28 22 19 17 22 17 17 16 14 12 13 14 16 17 18 18 15 14 13 11 10 8 9 10 10 9 9 11 12
41 40 42 42 44 43 37 36 32 30 26 23 14 10 14 14 20 15 16 12 14 17 19 20 20 18 17 16 15 12 11 9 9 9 8 9 9 10
35 34 35 36 33 34 27 29 30 28 23 20 17 17 20 19 18 17 13 9 4 9 9 12 15 21 21 21 18 15 12 10 10 9 9 8 9 9
29 29 29 30 27 25 28 21 23 26 22 25 28 23 20 19 17 17 17 12 11 9 10 16 19 23 19 16 16 16 13 12 11 9 9 8 10 10
24 25 27 27 24 23 20 21 22 20 22 27 24 16 13 11 13 11 13 11 14 14 14 8 9 13 8 10 11 14 14 13 12 11 10 8 9 10
19 18 20 21 23 23 24 22 17 22 23 22 18 16 16 13 10 14 12 13 8 10 13 15 10 9 11 13 15 15 16 14 12 12 12 10 8 12
12 11 15 18 21 24 21 21 25 30 27 23 18 17 15 13 13 15 17 20 12 5 14 12 9 7 5 8 12 16 17 15 13 13 12 10 9 13
16 16 18 21 20 19 20 26 30 28 26 21 16 15 14 15 16 21 20 24 22 21 10 13 7 10 11 4 6 11 15 15 16 15 13 12 10 10
16 17 19 19 20 22 27 30 29 25 25 24 21 20 20 19 23 22 23 27 29 29 22 22 15 18 18 12 12 13 16 16 18 19 16 14 13 12
11 13 15 16 17 18 22 22 19 21 24 23 24 23 22 20 17 17 19 23 25 26 27 26 25 24 24 20 15 18 18 18 19 20 19 19 14 13
9 11 16 17 18 19 19 17 22 25 26 26 23 24 20 17 20 18 21 24 25 27 26 26 25 26 26 27 25 22 25 15 10 15 17 17 17 16
8 8 10 14 15 17 20 23 23 25 26 25 25 25 22 20 19 18 23 21 21 19 22 25 24 25 27 27 24 25 24 27 27 27 25 25 24 20
7 11 12 13 14 15 16 22 25 24 24 23 25 25 23 21 18 22 24 23 19 18 17 19 20 19 22 25 28 26 27 27 26 24 22 24 28 21
7 9 14 16 17 16 17 18 21 23 23 23 25 26 23 20 19 20 21 21 20 19 21 20 19 17 6 8 16 17 21 21 19 16 18 21 26 18
12 12 13 16 17 19 20 20 21 20 20 21 22 23 20 21 21 22 21 18 18 18 19 20 20 20 18 10 8 13 17 20 19 16 16 17 19 19
12 14 14 14 16 15 16 17 19 20 21 22 23 21 20 18 22 22 21 21 21 18 17 16 20 20 20 18 14 15 17 19 20 19 13 15 14 12
13 15 17 17 16 16 18 18 19 20 21 20 20 19 19 19 21 22 21 19 19 19 19 17 17 17 17 13 15 14 13 15 16 18 17 16 9 5
12 13 14 15 17 18 18 19 20 20 20 19 19 19 18 19 20 21 19 18 18 18 18 17 17 17 17 15 14 13 13 14 13 12 14 16 15 15
Wind_Direction
246 242 236 240 236 231 230 222 199 175 205 211 194 210 210 210 210 211 205 191 183 192 168 82 37 15 24 21 10 8 9 8 10 12 14 15 13 10
246 244 237 238 236 230 225 220 216 206 172 191 202 200 200 206 207 211 216 206 209 221 210 197 202 335 4 7 360 2 0 7 5 9 12 15 13 12
245 241 237 238 233 228 227 222 213 205 162 167 189 194 194 197 201 212 218 227 229 239 247 220 237 267 299 334 342 348 356 0 357 2 9 14 13 13
246 240 234 232 227 226 225 228 215 206 192 165 179 179 196 201 207 212 223 235 236 241 239 235 233 235 258 282 304 329 345 350 347 353 4 10 13 11
247 243 237 230 225 222 221 222 213 206 204 184 163 187 186 195 200 214 229 233 240 244 236 237 238 242 242 259 275 292 317 328 340 341 353 7 11 10
250 247 241 235 229 227 218 214 208 202 203 189 178 179 186 191 209 218 228 239 247 249 244 238 240 249 247 250 264 275 285 305 313 326 341 358 3 6
248 248 246 242 239 229 220 216 199 203 192 190 172 164 181 179 200 221 232 245 261 263 251 239 239 242 251 253 263 267 281 285 292 313 329 340 346 354
253 249 247 239 228 229 222 221 223 204 196 190 187 190 198 201 200 213 215 219 272 244 243 236 238 247 253 263 254 254 263 271 275 292 314 328 326 329
258 256 250 241 232 223 210 224 223 215 221 228 209 202 201 208 209 213 220 227 233 259 248 271 253 260 264 250 240 241 246 261 259 274 289 313 321 321
264 257 247 233 217 205 209 206 204 209 227 230 227 216 212 210 225 241 236 251 257 261 254 266 274 270 236 242 242 233 239 251 258 269 272 285 306 311
264 260 244 224 206 202 198 195 216 233 221 226 212 205 211 224 219 220 223 213 238 257 238 234 265 266 269 263 244 240 235 243 258 269 267 271 281 294
254 241 229 216 202 198 206 217 218 217 211 208 206 208 226 232 224 242 236 225 213 245 228 213 242 237 281 266 248 233 225 243 253 263 266 268 274 287
229 214 208 206 206 215 222 221 219 216 214 217 214 218 231 232 240 232 240 243 223 231 229 206 230 223 226 264 258 231 239 247 258 261 260 262 261 268
241 229 216 210 206 210 210 218 216 218 208 207 209 218 229 238 243 236 245 247 246 249 248 245 244 233 230 242 246 260 251 255 258 263 264 268 263 254
241 230 222 213 218 209 213 222 210 212 204 205 217 229 242 255 259 248 244 245 249 249 247 248 246 250 251 245 247 246 255 269 264 257 264 262 262 259
246 229 224 215 208 210 209 211 212 216 214 219 231 246 255 257 246 247 247 246 246 249 244 243 248 250 249 253 248 253 256 244 266 257 256 258 253 260
240 219 204 200 205 213 219 216 217 221 223 233 244 252 262 253 257 258 242 238 237 243 247 252 254 253 255 257 251 255 253 260 260 262 261 261 258 258
227 230 224 217 219 222 226 229 228 234 240 247 258 265 260 259 259 253 249 249 246 248 246 253 251 247 252 256 253 251 259 261 265 265 259 253 261 257
232 245 246 242 240 239 238 238 243 247 255 262 263 260 261 264 254 252 252 248 246 248 248 251 254 249 238 258 264 254 247 260 262 263 259 248 251 263
248 270 268 258 255 254 252 251 258 264 267 263 260 259 256 255 255 254 253 249 250 253 257 255 252 245 237 256 263 262 249 247 255 260 265 260 256 259
260 264 271 271 267 263 261 264 267 268 267 263 258 257 254 256 259 257 256 257 259 256 253 250 254 256 259 265 267 258 252 241 246 255 261 256 254 258
271 273 274 273 271 271 272 272 272 270 267 264 262 264 262 257 254 256 256 255 254 252 257 264 261 259 261 251 259 263 250 254 240 243 259 250 227 223
295 294 285 284 283 282 280 279 278 276 273 271 269 267 265 261 262 262 262 263 262 264 268 276 280 277 265 254 259 260 252 249 251 248 243 234 242 250